Hauptseite
METAR-TAF:

METAR-TAF

Flughäfen :

Prague, Tschechien

Breite: 50-12-59N, Länge: 014-23-42E, Höhe: 280 m

Beobachtung

Neuester Wetterbericht von vor 3 Stunden und 51 Minuten, um 14:00 UTC
Wind 7 kt aus West/Südwest
Temperatur 17°C
Luftfeuchtigkeit 52%
Luftdruck 1022 hPa
Sichtweite 10 km oder mehr
keine Wolken unter 1500 m und keine Kumulonimbus oder Gewitterwolken

METAR: LKVO 191400Z 24007KT CAVOK 17/07 Q1022

Zeit: 19:51 (17:51 UTC)


TAF: fehlend

Wetterbeobachtungen und Prognosen von mehr als 4000 Flughäfen (METAR und TAF Bericht).

Die verfügbaren Stationen werden durch gelbe und rote Markierungen auf der Karte dargestellt.

Führen Sie die Maus auf sie, um den Namen der Station zu sehen.

Darauf klicken, um die Beobachtung von Wetterbeobachtungen und Prognosen zu sehen.

Um die Karte zu ändern : klicken Sie auf den grünen Tasten mit einem schwarzen Kreuz Zum Vergrößern, auf den grünen Button mit einem Gedankenstrich zu verkleinern, oder auf die grünen Pfeile für benachbarte Karten.


METAR-TAF: